Location: Home
(42.5358°N, 72.7383°W)
Time: 07:03:04
(UTC-05:00)

Explorer 11/Cluster Stage 4 - Pass Details

Date: 02 December 2021
Orbit: 467 x 1255 km, 28.8° (Epoch: 25 January)

Event Time Altitude Azimuth Distance (km) Brightness Sun altitude
Rises 05:36:35 0° 254° (WSW) 3,994 - -15.4°
Exits shadow 05:39:21 - 245° (WSW) 3,227 9.3 -14.9°
Reaches altitude 10° 05:39:47 10° 243° (WSW) 3,115 9.2 -14.8°
Maximum altitude 05:46:09 27° 190° (S) 2,192 8.9 -13.7°
Drops below altitude 10° 05:52:42 10° 137° (SE) 3,210 10.7 -12.5°
Sets 05:56:04 0° 126° (SE) 4,137 11.9 -11.9°
